Time,TemperatureF,DewpointF,PressureIn,WindDirection,WindDirectionDegrees,WindSpeedMPH,WindSpeedGustMPH,Humidity,HourlyPrecipIn,Conditions,Clouds,dailyrainin,SolarRadiationWatts/m^2,SoftwareType,DateUTC
2013-09-07 00:01:00,50.9,46.2,30.09,SSW,195,0.0,0.0,84,0.00,,---,0.00,0.00,VWS V14.01,2013-09-07 07:01:00,
2013-09-07 00:06:00,50.6,46.3,30.09,SSW,195,0.0,0.0,85,0.00,,---,0.00,0.00,VWS V14.01,2013-09-07 07:06:00,
2013-09-07 00:11:00,50.3,46.0,30.09,SSW,195,0.0,0.0,85,0.00,,---,0.00,0.00,VWS V14.01,2013-09-07 07:11:00,
2013-09-07 00:16:00,50.0,46.0,30.09,SSW,195,0.0,0.0,86,0.00,,---,0.00,0.00,VWS V14.01,2013-09-07 07:16:00,
2013-09-07 00:21:00,49.9,46.2,30.09,SSW,195,0.0,0.0,87,0.00,,---,0.00,0.00,VWS V14.01,2013-09-07 07:21:00,
2013-09-07 00:26:00,49.8,46.1,30.08,SSW,195,0.0,0.0,87,0.00,,---,0.00,0.00,VWS V14.01,2013-09-07 07:26:00,
2013-09-07 00:31:00,49.7,46.3,30.08,SSW,195,0.0,0.0,88,0.00,,---,0.00,0.00,VWS V14.01,2013-09-07 07:31:00,
2013-09-07 00:36:00,49.7,46.3,30.08,SSW,195,0.0,0.0,88,0.00,,---,0.00,0.00,VWS V14.01,2013-09-07 07:36:00,
2013-09-07 00:41:00,49.7,46.3,30.08,SSW,195,0.0,0.0,88,0.00,,---,0.00,0.00,VWS V14.01,2013-09-07 07:41:00,
2013-09-07 00:46:00,49.6,46.2,30.08,SSW,195,0.0,0.0,88,0.00,,---,0.00,0.00,VWS V14.01,2013-09-07 07:46:00,
2013-09-07 00:51:00,49.5,46.1,30.08,SSW,195,0.0,0.0,88,0.00,,---,0.00,0.00,VWS V14.01,2013-09-07 07:51:00,
2013-09-07 00:56:00,49.4,46.0,30.08,SSW,195,0.0,0.0,88,0.00,,---,0.00,0.00,VWS V14.01,2013-09-07 07:56:00,
2013-09-07 01:01:00,49.5,46.4,30.08,West,263,0.0,0.0,89,0.00,,---,0.00,0.00,VWS V14.01,2013-09-07 08:01:00,
2013-09-07 01:06:00,49.6,46.2,30.08,North,350,0.0,1.0,88,0.00,,---,0.00,0.00,VWS V14.01,2013-09-07 08:06:00,
2013-09-07 01:11:00,49.7,46.6,30.08,NW,318,0.0,1.0,89,0.00,,---,0.00,0.00,VWS V14.01,2013-09-07 08:11:00,
2013-09-07 01:16:00,49.8,46.7,30.07,NW,318,0.0,1.0,89,0.00,,---,0.00,0.00,VWS V14.01,2013-09-07 08:16:00,
2013-09-07 01:21:00,49.8,46.7,30.07,WNW,298,0.0,1.0,89,0.00,,---,0.00,0.00,VWS V14.01,2013-09-07 08:21:00,
2013-09-07 01:26:00,49.8,46.7,30.07,WNW,298,0.0,1.0,89,0.00,,---,0.00,0.00,VWS V14.01,2013-09-07 08:26:00,
2013-09-07 01:31:00,49.7,46.6,30.07,WNW,298,0.0,1.0,89,0.00,,---,0.00,0.00,VWS V14.01,2013-09-07 08:31:00,
2013-09-07 01:36:00,49.7,46.6,30.07,WNW,298,1.0,1.0,89,0.00,,---,0.00,0.00,VWS V14.01,2013-09-07 08:36:00,
2013-09-07 01:41:00,49.6,46.5,30.07,WNW,298,0.0,1.0,89,0.00,,---,0.00,0.00,VWS V14.01,2013-09-07 08:41:00,
2013-09-07 01:46:00,49.6,46.5,30.07,WNW,298,0.0,1.0,89,0.00,,---,0.00,0.00,VWS V14.01,2013-09-07 08:46:00,
2013-09-07 01:51:00,49.3,45.9,30.07,WNW,298,0.0,1.0,88,0.00,,---,0.00,0.00,VWS V14.01,2013-09-07 08:51:00,
2013-09-07 01:56:00,49.1,46.0,30.07,WNW,298,0.0,2.0,89,0.00,,---,0.00,0.00,VWS V14.01,2013-09-07 08:56:00,
2013-09-07 02:01:00,49.0,46.2,30.06,WNW,298,0.0,0.0,90,0.00,,---,0.00,0.00,VWS V14.01,2013-09-07 09:01:00,
2013-09-07 02:06:00,48.9,45.8,30.06,WNW,298,0.0,0.0,89,0.00,,---,0.00,0.00,VWS V14.01,2013-09-07 09:06:00,
2013-09-07 02:11:00,48.8,46.0,30.07,WNW,298,0.0,1.0,90,0.00,,---,0.00,0.00,VWS V14.01,2013-09-07 09:11:00,
2013-09-07 02:16:00,48.7,45.9,30.06,WNW,298,0.0,1.0,90,0.00,,---,0.00,0.00,VWS V14.01,2013-09-07 09:16:00,
2013-09-07 02:21:00,48.6,45.8,30.06,WNW,298,0.0,1.0,90,0.00,,---,0.00,0.00,VWS V14.01,2013-09-07 09:21:00,
2013-09-07 02:26:00,48.6,45.8,30.06,WNW,298,0.0,1.0,90,0.00,,---,0.00,0.00,VWS V14.01,2013-09-07 09:26:00,
2013-09-07 02:31:00,48.5,45.7,30.06,WNW,298,0.0,0.0,90,0.00,,---,0.00,0.00,VWS V14.01,2013-09-07 09:31:00,
2013-09-07 02:36:00,48.5,45.7,30.06,NW,314,0.0,0.0,90,0.00,,---,0.00,0.00,VWS V14.01,2013-09-07 09:36:00,
2013-09-07 02:41:00,48.5,45.7,30.06,NNW,347,0.0,1.0,90,0.00,,---,0.00,0.00,VWS V14.01,2013-09-07 09:41:00,
2013-09-07 02:46:00,48.6,45.8,30.06,NNW,328,0.0,2.0,90,0.00,,---,0.00,0.00,VWS V14.01,2013-09-07 09:46:00,
2013-09-07 02:51:00,48.7,45.6,30.06,NNW,348,0.0,2.0,89,0.00,,---,0.00,0.00,VWS V14.01,2013-09-07 09:51:00,
2013-09-07 02:56:00,48.8,45.7,30.06,NNW,348,0.0,2.0,89,0.00,,---,0.00,0.00,VWS V14.01,2013-09-07 09:56:00,
2013-09-07 03:01:00,48.8,45.7,30.05,NNW,340,0.0,0.0,89,0.00,,---,0.00,0.00,VWS V14.01,2013-09-07 10:01:00,
2013-09-07 03:06:00,48.9,45.8,30.05,NW,319,1.0,2.0,89,0.00,,---,0.00,0.00,VWS V14.01,2013-09-07 10:06:00,
2013-09-07 03:11:00,49.0,45.9,30.05,North,350,2.0,2.0,89,0.00,,---,0.00,0.00,VWS V14.01,2013-09-07 10:11:00,
2013-09-07 03:16:00,49.2,46.4,30.05,North,5,0.0,3.0,90,0.00,,---,0.00,0.00,VWS V14.01,2013-09-07 10:16:00,
2013-09-07 03:21:00,49.4,46.3,30.05,North,355,0.0,3.0,89,0.00,,---,0.00,0.00,VWS V14.01,2013-09-07 10:21:00,
2013-09-07 03:26:00,49.6,46.2,30.05,North,355,1.0,3.0,88,0.00,,---,0.00,0.00,VWS V14.01,2013-09-07 10:26:00,
2013-09-07 03:31:00,49.7,46.3,30.05,NNW,331,2.0,2.0,88,0.00,,---,0.00,0.00,VWS V14.01,2013-09-07 10:31:00,
2013-09-07 03:36:00,49.9,46.5,30.05,North,5,1.0,2.0,88,0.00,,---,0.00,0.00,VWS V14.01,2013-09-07 10:36:00,
2013-09-07 03:41:00,50.0,46.3,30.05,North,355,0.0,3.0,87,0.00,,---,0.00,0.00,VWS V14.01,2013-09-07 10:41:00,
2013-09-07 03:46:00,50.1,46.4,30.05,NNE,15,1.0,5.0,87,0.00,,---,0.00,0.00,VWS V14.01,2013-09-07 10:46:00,
2013-09-07 03:51:00,50.0,46.0,30.05,NNW,347,3.0,7.0,86,0.00,,---,0.00,0.00,VWS V14.01,2013-09-07 10:51:00,
2013-09-07 03:56:00,49.8,45.8,30.05,North,355,4.0,8.0,86,0.00,,---,0.00,0.00,VWS V14.01,2013-09-07 10:56:00,
2013-09-07 04:01:00,49.5,45.5,30.05,NNE,22,2.0,5.0,86,0.00,,---,0.00,0.00,VWS V14.01,2013-09-07 11:01:00,
2013-09-07 04:06:00,49.2,45.2,30.05,NW,318,2.0,11.0,86,0.00,,---,0.00,0.00,VWS V14.01,2013-09-07 11:06:00,
2013-09-07 04:11:00,49.1,45.4,30.05,NNE,17,1.0,11.0,87,0.00,,---,0.00,0.00,VWS V14.01,2013-09-07 11:11:00,
2013-09-07 04:16:00,48.9,45.2,30.05,North,5,2.0,11.0,87,0.00,,---,0.00,0.00,VWS V14.01,2013-09-07 11:16:00,
2013-09-07 04:21:00,48.8,45.4,30.05,NNW,344,1.0,11.0,88,0.00,,---,0.00,0.00,VWS V14.01,2013-09-07 11:21:00,
2013-09-07 04:26:00,48.8,45.4,30.05,NNW,342,0.0,11.0,88,0.00,,---,0.00,0.00,VWS V14.01,2013-09-07 11:26:00,
2013-09-07 04:31:00,48.8,45.4,30.05,North,5,0.0,2.0,88,0.00,,---,0.00,0.00,VWS V14.01,2013-09-07 11:31:00,
2013-09-07 04:36:00,48.8,45.7,30.05,North,5,1.0,4.0,89,0.00,,---,0.00,0.00,VWS V14.01,2013-09-07 11:36:00,
2013-09-07 04:41:00,49.0,45.9,30.05,NNE,30,3.0,6.0,89,0.00,,---,0.00,0.00,VWS V14.01,2013-09-07 11:41:00,
2013-09-07 04:46:00,49.0,45.6,30.05,NW,325,0.0,6.0,88,0.00,,---,0.00,0.00,VWS V14.01,2013-09-07 11:46:00,
2013-09-07 04:51:00,49.1,45.7,30.04,NNW,333,0.0,6.0,88,0.00,,---,0.00,0.00,VWS V14.01,2013-09-07 11:51:00,
2013-09-07 04:56:00,49.0,45.6,30.04,NE,53,2.0,6.0,88,0.00,,---,0.00,0.00,VWS V14.01,2013-09-07 11:56:00,